Date String (YYYY-MM-DD hh:mm:ss) UTC,Instrument flags,Ambient pressure (hPa),Sample flow (lpm),Bypass flow (lpm),Sample temperature (°C),Ambient temperature (°C),ASC tube jacket temperature (°C),LED temperature (°C),Box temperature (°C),Sample RH (%),Span deviation,Mass concentration (μg/m³),Mass concentration (μg/m³),Mass concentration (μg/m³)
DateTimeUTC,F1_M11,P_M11,Q1_M11,Q2_M11,T1_M11,T2_M11,T3_M11,T4_M11,T5_M11,U1_M11,ZSPAN_M11,X0_M11,X2_M11,X1_M11
2022-08-11 11:00:00,,0831.5,5.01,0.00,29.7,28.6,00.0,38.5,31.7,23.4,0000.0,0012.83,0005.89,0004.70
2022-08-11 11:01:00,,0831.5,5.00,0.00,29.8,28.7,00.0,38.5,31.7,23.6,0000.0,0013.71,0005.90,0004.70
2022-08-11 11:02:00,,0831.6,5.00,0.00,29.8,28.7,00.0,38.5,31.7,23.6,0000.0,0014.60,0005.95,0004.70
2022-08-11 11:03:00,,0831.6,5.00,0.00,29.8,28.8,00.0,38.6,31.7,23.6,0000.0,0014.66,0005.95,0004.70
2022-08-11 11:04:00,,0831.6,5.00,0.00,29.8,28.8,00.0,38.6,31.7,23.4,0000.0,0014.70,0005.95,0004.71
2022-08-11 11:05:00,,0831.6,5.00,0.00,29.9,28.9,00.0,38.6,31.8,22.9,0000.0,0013.94,0005.92,0004.71
2022-08-11 11:06:00,,0831.6,5.00,0.00,29.9,28.9,00.0,38.6,31.9,23.1,0000.0,0014.31,0005.90,0004.70
2022-08-11 11:07:00,,0831.6,4.99,0.00,29.9,29.0,00.0,38.6,31.9,23.1,0000.0,0014.83,0005.96,0004.69
2022-08-11 11:08:00,,0831.6,5.00,0.00,29.9,29.0,00.0,38.7,31.9,23.1,0000.0,0015.79,0006.03,0004.70
2022-08-11 11:09:00,,0831.6,4.99,0.00,30.0,28.7,00.0,38.7,31.8,23.3,0000.0,0015.92,0006.03,0004.70
2022-08-11 11:10:00,,0831.5,5.01,0.00,29.9,27.9,00.0,38.6,31.6,23.2,0000.0,0015.83,0005.96,0004.70
2022-08-11 11:11:00,,0831.5,5.01,0.00,29.9,27.6,00.0,38.6,31.6,23.2,0000.0,0015.37,0005.91,0004.70
2022-08-11 11:12:00,,0831.5,4.99,0.00,29.8,27.6,00.0,38.6,31.5,23.3,0000.0,0014.58,0005.89,0004.71
2022-08-11 11:13:00,,0831.5,5.00,0.00,29.7,27.6,00.0,38.6,31.4,23.2,0000.0,0013.54,0005.89,0004.72
2022-08-11 11:14:00,,0831.5,4.99,0.00,29.7,27.7,00.0,38.6,31.4,23.4,0000.0,0014.09,0005.91,0004.73
2022-08-11 11:15:00,,0831.5,5.02,0.00,29.7,27.9,00.0,38.5,31.5,23.5,0000.0,0014.76,0005.94,0004.74
2022-08-11 11:16:00,,0831.6,4.99,0.00,29.7,28.0,00.0,38.5,31.5,23.5,0000.0,0014.71,0005.93,0004.76
2022-08-11 11:17:00,,0831.5,5.00,0.00,29.7,28.1,00.0,38.5,31.5,23.4,0000.0,0014.35,0005.97,0004.79
2022-08-11 11:18:00,,0831.5,5.01,0.00,29.7,28.3,00.0,38.5,31.6,23.6,0000.0,0013.60,0005.96,0004.81
2022-08-11 11:19:00,,0831.5,5.01,0.00,29.7,28.4,00.0,38.5,31.6,23.4,0000.0,0013.21,0005.92,0004.83
2022-08-11 11:20:00,,0831.5,5.00,0.00,29.7,28.5,00.0,38.5,31.6,23.4,0000.0,0013.32,0005.95,0004.85
2022-08-11 11:21:00,,0831.5,5.00,0.00,29.8,28.5,00.0,38.6,31.7,23.6,0000.0,0013.21,0005.98,0004.88
2022-08-11 11:22:00,,0831.5,5.00,0.00,29.8,28.6,00.0,38.6,31.7,23.5,0000.0,0013.36,0006.05,0004.90
2022-08-11 11:23:00,,0831.5,5.00,0.00,29.8,28.7,00.0,38.6,31.7,23.4,0000.0,0013.46,0006.08,0004.92
2022-08-11 11:24:00,,0831.6,5.01,0.00,29.8,28.7,00.0,38.6,31.8,23.3,0000.0,0013.37,0006.03,0004.92
2022-08-11 11:25:00,,0831.5,5.00,0.00,29.8,28.8,00.0,38.6,31.8,23.1,0000.0,0013.01,0006.04,0004.93
2022-08-11 11:26:00,,0831.5,5.00,0.00,29.9,28.9,00.0,38.6,31.8,23.1,0000.0,0011.87,0006.01,0004.92
2022-08-11 11:27:00,,0831.5,5.00,0.00,29.9,28.9,00.0,38.6,31.9,23.2,0000.0,0012.12,0006.03,0004.92
2022-08-11 11:28:00,,0831.6,5.00,0.00,29.9,28.9,00.0,38.7,31.9,23.4,0000.0,0012.67,0006.05,0004.93
2022-08-11 11:29:00,,0831.5,5.00,0.00,29.9,29.0,00.0,38.7,31.9,23.3,0000.0,0012.47,0006.04,0004.93
2022-08-11 11:30:00,,0831.5,5.00,0.00,30.0,28.9,00.0,38.7,31.9,23.5,0000.0,0012.39,0006.06,0004.94
2022-08-11 11:31:00,,0831.6,5.00,0.00,29.9,28.2,00.0,38.6,31.7,23.4,0000.0,0012.44,0006.07,0004.96
2022-08-11 11:32:00,,0831.5,4.99,0.00,29.9,27.7,00.0,38.6,31.6,23.4,0000.0,0012.74,0006.13,0004.96
2022-08-11 11:33:00,,0831.5,5.02,0.00,29.8,27.6,00.0,38.6,31.5,23.5,0000.0,0012.79,0006.12,0004.96
2022-08-11 11:34:00,,0831.5,4.99,0.00,29.7,27.7,00.0,38.6,31.4,23.3,0000.0,0013.01,0006.13,0004.96
2022-08-11 11:35:00,,0831.5,5.00,0.00,29.7,27.8,00.0,38.6,31.5,23.1,0000.0,0013.46,0006.19,0004.98
2022-08-11 11:36:00,,0831.5,4.99,0.00,29.7,27.9,00.0,38.6,31.5,23.1,0000.0,0013.51,0006.22,0004.99
2022-08-11 11:37:00,,0831.5,5.01,0.00,29.7,28.0,00.0,38.6,31.5,23.2,0000.0,0013.52,0006.24,0005.01
2022-08-11 11:38:00,,0831.6,5.00,0.00,29.7,28.1,00.0,38.6,31.5,23.2,0000.0,0013.38,0006.26,0005.02
2022-08-11 11:39:00,,0831.6,5.00,0.00,29.7,28.3,00.0,38.6,31.6,23.1,0000.0,0013.08,0006.29,0005.03
2022-08-11 11:40:00,,0831.5,5.01,0.00,29.7,28.4,00.0,38.6,31.6,22.7,0000.0,0013.59,0006.31,0005.02
2022-08-11 11:41:00,,0831.5,5.00,0.00,29.7,28.5,00.0,38.6,31.6,22.8,0000.0,0013.49,0006.31,0005.03
2022-08-11 11:42:00,,0831.5,5.00,0.00,29.8,28.5,00.0,38.6,31.7,22.8,0000.0,0013.76,0006.33,0005.03
2022-08-11 11:43:00,,0831.5,4.99,0.00,29.8,28.6,00.0,38.6,31.7,22.6,0000.0,0013.68,0006.25,0005.03
2022-08-11 11:44:00,,0831.5,5.00,0.00,29.8,28.7,00.0,38.6,31.7,22.7,0000.0,0013.86,0006.21,0005.04
2022-08-11 11:45:00,,0831.5,5.00,0.00,29.8,28.7,00.0,38.6,31.8,22.8,0000.0,0013.85,0006.21,0005.05
2022-08-11 11:46:00,,0831.5,4.99,0.00,29.8,28.8,00.0,38.6,31.8,22.6,0000.0,0013.58,0006.18,0005.05
2022-08-11 11:47:00,,0831.5,5.00,0.00,29.9,28.8,00.0,38.6,31.8,22.6,0000.0,0014.27,0006.22,0005.06
2022-08-11 11:48:00,,0831.5,5.00,0.00,29.9,28.9,00.0,38.7,31.8,22.6,0000.0,0014.93,0006.23,0005.07
2022-08-11 11:49:00,,0831.5,5.00,0.00,29.9,28.9,00.0,38.7,31.9,22.6,0000.0,0015.97,0006.24,0005.07
2022-08-11 11:50:00,,0831.5,5.00,0.00,29.9,29.0,00.0,38.7,31.9,22.5,0000.0,0016.21,0006.20,0005.07
2022-08-11 11:51:00,,0831.5,5.00,0.00,30.0,29.0,00.0,38.7,31.9,22.4,0000.0,0015.73,0006.19,0005.07
2022-08-11 11:52:00,,0831.5,5.00,0.00,30.0,28.9,00.0,38.7,31.9,22.4,0000.0,0015.37,0006.22,0005.07
2022-08-11 11:53:00,,0831.5,5.00,0.00,30.0,28.2,00.0,38.7,31.7,22.5,0000.0,0015.37,0006.26,0005.07
2022-08-11 11:54:00,,0831.5,5.00,0.00,29.9,27.7,00.0,38.6,31.6,22.5,0000.0,0015.28,0006.28,0005.07
2022-08-11 11:55:00,,0831.6,5.00,0.00,29.8,27.6,00.0,38.6,31.5,22.5,0000.0,0014.87,0006.26,0005.05
2022-08-11 11:56:00,,0831.5,5.01,0.00,29.7,27.7,00.0,38.6,31.5,22.7,0000.0,0014.71,0006.30,0005.06
2022-08-11 11:57:00,,0831.5,4.99,0.00,29.7,27.8,00.0,38.6,31.4,22.8,0000.0,0015.25,0006.31,0005.06
2022-08-11 11:58:00,,0831.5,4.99,0.00,29.7,27.9,00.0,38.6,31.5,22.9,0000.0,0015.54,0006.26,0005.06
2022-08-11 11:59:00,,0831.6,5.00,0.00,29.7,28.0,00.0,38.6,31.5,22.9,0000.0,0014.88,0006.23,0005.04
